Location: Huntsville
(41.2590°N, 111.7678°W)
Time: 21:05:35
(UTC+00:00)

Explorer 7 - Pass Details

Date: 17 June 2021
Orbit: 484 x 676 km, 50.3° (Epoch: 30 July)

Event Time Altitude Azimuth Distance (km) Brightness Sun altitude
Rises 04:20:59 0° 210° (SSW) 3,009 10.4 -12.2°
Reaches altitude 10° 04:23:30 10° 201° (SSW) 2,101 9.5 -12.5°
Maximum altitude 04:27:55 35° 136° (SE) 1,078 7.8 -13.1°
Drops below altitude 10° 04:32:18 10° 71° (ENE) 2,077 9.5 -13.6°
Sets 04:34:45 0° 63° (ENE) 2,971 10.4 -13.9°
